| time (UTC) | temp C | wind direction | speed KPH | gust KPH | rain 1hr cm | rain 24hr cm | rain mn cm | humidity % | barometer mb |
| 20260904062503 | 25 | 172 | 0.0 | 3.2 | 0.00 | 0.00 | 0.00 | 83 | 1013.6 |
| 20260904062003 | 25 | 173 | 0.0 | 3.2 | 0.00 | 0.00 | 0.00 | 82 | 1013.6 |
| 20260904061504 | 25 | 173 | 0.0 | 3.2 | 0.00 | 0.00 | 0.00 | 82 | 1013.6 |
| 20260904061003 | 25 | 170 | 0.0 | 3.2 | 0.00 | 0.00 | 0.00 | 82 | 1013.7 |
| 20260904060503 | 25 | 177 | 0.0 | 3.2 | 0.00 | 0.00 | 0.00 | 82 | 1013.7 |
| 20260904060004 | 25 | 185 | 1.6 | 4.8 | 0.00 | 0.00 | 0.00 | 82 | 1013.6 |
| 20260904055504 | 25 | 190 | 1.6 | 4.8 | 0.00 | 0.00 | 0.00 | 81 | 1013.6 |
| 20260904055004 | 25 | 187 | 1.6 | 4.8 | 0.00 | 0.00 | 0.00 | 81 | 1013.7 |
| 20260904054504 | 25 | 183 | 1.6 | 4.8 | 0.00 | 0.00 | 0.00 | 81 | 1013.7 |
| 20260904054003 | 25 | 172 | 0.0 | 4.8 | 0.00 | 0.00 | 0.00 | 81 | 1013.6 |
| 20260904053504 | 25 | 191 | 0.0 | 4.8 | 0.00 | 0.00 | 0.00 | 81 | 1013.5 |
| 20260904053003 | 25 | 193 | 1.6 | 4.8 | 0.00 | 0.00 | 0.00 | 81 | 1013.5 |
| 20260904052501 | 25 | 171 | 1.6 | 4.8 | 0.00 | 0.00 | 0.00 | 80 | 1013.5 |
| 20260904052001 | 25 | 179 | 1.6 | 4.8 | 0.00 | 0.00 | 0.00 | 80 | 1013.6 |
| 20260904051501 | 25 | 194 | 0.0 | 4.8 | 0.00 | 0.00 | 0.00 | 80 | 1013.6 |
| 20260904051001 | 26 | 199 | 0.0 | 4.8 | 0.00 | 0.00 | 0.00 | 80 | 1013.6 |
| 20260904050501 | 26 | 199 | 0.0 | 4.8 | 0.00 | 0.00 | 0.00 | 80 | 1013.5 |
| 20260904050002 | 26 | 200 | 0.0 | 4.8 | 0.00 | 0.00 | 0.00 | 80 | 1013.6 |
| 20260904045502 | 26 | 201 | 0.0 | 4.8 | 0.00 | 0.00 | 0.00 | 79 | 1013.6 |
| 20260904045001 | 26 | 207 | 0.0 | 4.8 | 0.00 | 0.00 | 0.00 | 79 | 1013.6 |
| 20260904044501 | 26 | 187 | 1.6 | 4.8 | 0.00 | 0.00 | 0.00 | 79 | 1013.7 |
| 20260904042501 | 26 | 174 | 1.6 | 6.4 | 0.00 | 0.00 | 0.00 | 78 | 1013.7 |
| 20260904042001 | 26 | 170 | 1.6 | 6.4 | 0.00 | 0.00 | 0.00 | 78 | 1013.8 |
| 20260904041501 | 26 | 175 | 1.6 | 6.4 | 0.00 | 0.00 | 0.00 | 78 | 1013.8 |
| 20260904041001 | 26 | 174 | 1.6 | 6.4 | 0.00 | 0.00 | 0.00 | 77 | 1013.8 |
| 20260904040501 | 26 | 171 | 1.6 | 4.8 | 0.00 | 0.00 | 0.00 | 77 | 1013.7 |
| 20260904040002 | 26 | 182 | 1.6 | 4.8 | 0.00 | 0.00 | 0.00 | 77 | 1013.7 |
| 20260904035501 | 26 | 177 | 1.6 | 4.8 | 0.00 | 0.00 | 0.00 | 77 | 1013.7 |
| 20260904035001 | 26 | 176 | 1.6 | 4.8 | 0.00 | 0.00 | 0.00 | 77 | 1013.7 |
| 20260904034001 | 26 | 179 | 0.0 | 4.8 | 0.00 | 0.00 | 0.00 | 77 | 1013.6 |
| 20260904033001 | 27 | 166 | 1.6 | 6.4 | 0.00 | 0.00 | 0.00 | 76 | 1013.8 |
| 20260904032501 | 27 | 172 | 1.6 | 8.0 | 0.00 | 0.00 | 0.00 | 76 | 1013.8 |
| 20260904032001 | 27 | 175 | 3.2 | 8.0 | 0.00 | 0.00 | 0.00 | 76 | 1013.7 |
| 20260904030501 | 27 | 170 | 3.2 | 12.9 | 0.00 | 0.00 | 0.00 | 76 | 1013.7 |
| 20260904030002 | 27 | 171 | 3.2 | 12.9 | 0.00 | 0.00 | 0.00 | 76 | 1013.7 |
| 20260904025501 | 27 | 173 | 3.2 | 11.3 | 0.00 | 0.00 | 0.00 | 76 | 1013.6 |
| 20260904025001 | 27 | 170 | 3.2 | 11.3 | 0.00 | 0.00 | 0.00 | 76 | 1013.6 |
| 20260904024502 | 27 | 162 | 1.6 | 9.7 | 0.00 | 0.00 | 0.00 | 76 | 1013.5 |
| 20260904024002 | 27 | 165 | 1.6 | 9.7 | 0.00 | 0.00 | 0.00 | 76 | 1013.4 |
| 20260904023501 | 27 | 173 | 3.2 | 9.7 | 0.00 | 0.00 | 0.00 | 76 | 1013.2 |
| 20260904023001 | 27 | 171 | 1.6 | 11.3 | 0.00 | 0.00 | 0.00 | 76 | 1013.2 |
| 20260904022501 | 27 | 172 | 3.2 | 11.3 | 0.00 | 0.00 | 0.00 | 76 | 1012.9 |
| 20260904022001 | 27 | 181 | 3.2 | 11.3 | 0.00 | 0.00 | 0.00 | 76 | 1012.8 |
| 20260904021001 | 28 | 173 | 3.2 | 8.0 | 0.00 | 0.00 | 0.00 | 78 | 1012.7 |
| 20260904020501 | 28 | 173 | 3.2 | 8.0 | 0.00 | 0.00 | 0.00 | 78 | 1012.7 |
| 20260904020001 | 28 | 166 | 1.6 | 8.0 | 0.00 | 0.00 | 0.00 | 77 | 1012.7 |
| 20260904015501 | 28 | 165 | 3.2 | 8.0 | 0.00 | 0.00 | 0.00 | 76 | 1012.5 |
| 20260904015001 | 28 | 168 | 3.2 | 16.1 | 0.00 | 0.00 | 0.00 | 76 | 1012.5 |
| 20260904014501 | 28 | 167 | 3.2 | 16.1 | 0.00 | 0.00 | 0.00 | 75 | 1012.4 |
| 20260904014002 | 28 | 173 | 3.2 | 12.9 | 0.00 | 0.00 | 0.00 | 75 | 1012.4 |
| 20260904013501 | 28 | 175 | 4.8 | 9.7 | 0.00 | 0.00 | 0.00 | 75 | 1012.3 |
| 20260904013001 | 28 | 174 | 3.2 | 12.9 | 0.00 | 0.00 | 0.00 | 75 | 1012.3 |
| 20260904012502 | 28 | 173 | 3.2 | 12.9 | 0.00 | 0.00 | 0.00 | 75 | 1012.2 |
| 20260904012002 | 29 | 170 | 3.2 | 11.3 | 0.00 | 0.00 | 0.00 | 75 | 1012.1 |
| 20260904011501 | 29 | 169 | 3.2 | 12.9 | 0.00 | 0.00 | 0.00 | 74 | 1012.0 |
| 20260904011001 | 29 | 167 | 3.2 | 12.9 | 0.00 | 0.00 | 0.00 | 74 | 1012.0 |
| 20260904010001 | 30 | 177 | 4.8 | 11.3 | 0.00 | 0.00 | 0.00 | 74 | 1011.9 |
| 20260904004502 | 30 | 160 | 3.2 | 11.3 | 0.00 | 0.00 | 0.00 | 72 | 1012.0 |
| 20260904004001 | 30 | 162 | 3.2 | 12.9 | 0.00 | 0.00 | 0.00 | 72 | 1012.0 |
| 20260904003501 | 30 | 164 | 3.2 | 14.5 | 0.00 | 0.00 | 0.00 | 71 | 1012.0 |
| 20260904003001 | 30 | 163 | 3.2 | 14.5 | 0.00 | 0.00 | 0.00 | 70 | 1011.8 |
| 20260904002501 | 31 | 163 | 3.2 | 12.9 | 0.00 | 0.00 | 0.00 | 69 | 1011.9 |
| 20260904001501 | 31 | 161 | 3.2 | 11.3 | 0.00 | 0.00 | 0.00 | 68 | 1011.9 |
| 20260904001001 | 31 | 163 | 4.8 | 14.5 | 0.00 | 0.00 | 0.00 | 68 | 1011.8 |
| 20260904000502 | 31 | 160 | 6.4 | 14.5 | 0.00 | 0.00 | 0.00 | 67 | 1011.8 |
| 20260904000002 | 31 | 151 | 4.8 | 14.5 | 0.00 | 0.00 | 0.00 | 66 | 1011.8 |
| 20260903235501 | 32 | 156 | 4.8 | 11.3 | 0.00 | 0.00 | 0.00 | 65 | 1011.8 |
| 20260903235002 | 32 | 162 | 4.8 | 12.9 | 0.00 | 0.00 | 0.00 | 65 | 1011.7 |
| 20260903234502 | 32 | 154 | 4.8 | 12.9 | 0.00 | 0.00 | 0.00 | 65 | 1011.6 |
| 20260903234001 | 32 | 156 | 4.8 | 12.9 | 0.00 | 0.00 | 0.00 | 65 | 1011.7 |
| 20260903233501 | 32 | 160 | 4.8 | 12.9 | 0.00 | 0.00 | 0.00 | 65 | 1011.7 |
| 20260903233001 | 32 | 157 | 4.8 | 12.9 | 0.00 | 0.00 | 0.00 | 65 | 1011.6 |
| 20260903232501 | 32 | 159 | 3.2 | 12.9 | 0.00 | 0.00 | 0.00 | 65 | 1011.6 |
| 20260903232001 | 32 | 166 | 3.2 | 12.9 | 0.00 | 0.00 | 0.00 | 65 | 1011.5 |
| 20260903231501 | 32 | 164 | 4.8 | 16.1 | 0.00 | 0.00 | 0.00 | 66 | 1011.6 |
| 20260903231001 | 32 | 155 | 4.8 | 16.1 | 0.00 | 0.00 | 0.00 | 66 | 1011.6 |
| 20260903230501 | 32 | 157 | 4.8 | 14.5 | 0.00 | 0.00 | 0.00 | 66 | 1011.5 |
| 20260903230002 | 32 | 161 | 4.8 | 16.1 | 0.00 | 0.00 | 0.00 | 67 | 1011.6 |
| 20260903225002 | 32 | 153 | 4.8 | 14.5 | 0.00 | 0.00 | 0.00 | 67 | 1011.5 |
| 20260903224502 | 32 | 144 | 4.8 | 14.5 | 0.00 | 0.00 | 0.00 | 66 | 1011.5 |
| 20260903224001 | 33 | 157 | 4.8 | 14.5 | 0.00 | 0.00 | 0.00 | 65 | 1011.5 |
| 20260903223501 | 33 | 159 | 4.8 | 14.5 | 0.00 | 0.00 | 0.00 | 65 | 1011.5 |
| 20260903223002 | 33 | 138 | 3.2 | 11.3 | 0.00 | 0.00 | 0.00 | 64 | 1011.5 |
| 20260903222502 | 33 | 117 | 1.6 | 11.3 | 0.00 | 0.00 | 0.00 | 64 | 1011.4 |
| 20260903221501 | 33 | 156 | 3.2 | 9.7 | 0.00 | 0.00 | 0.00 | 63 | 1011.4 |
| 20260903221002 | 33 | 171 | 4.8 | 17.7 | 0.00 | 0.00 | 0.00 | 62 | 1011.4 |
| 20260903220502 | 33 | 176 | 6.4 | 17.7 | 0.00 | 0.00 | 0.00 | 62 | 1011.5 |
| 20260903220002 | 33 | 174 | 4.8 | 14.5 | 0.00 | 0.00 | 0.00 | 61 | 1011.5 |
| 20260903215501 | 33 | 161 | 3.2 | 11.3 | 0.00 | 0.00 | 0.00 | 62 | 1011.6 |
| 20260903215002 | 33 | 166 | 4.8 | 12.9 | 0.00 | 0.00 | 0.00 | 62 | 1011.7 |
| 20260903214502 | 33 | 160 | 4.8 | 12.9 | 0.00 | 0.00 | 0.00 | 62 | 1011.7 |
| 20260903214001 | 33 | 168 | 4.8 | 16.1 | 0.00 | 0.00 | 0.00 | 62 | 1011.8 |
| 20260903213001 | 34 | 174 | 3.2 | 16.1 | 0.00 | 0.00 | 0.00 | 61 | 1011.8 |
| 20260903212502 | 33 | 187 | 4.8 | 12.9 | 0.00 | 0.00 | 0.00 | 62 | 1011.8 |
| 20260903212002 | 33 | 190 | 4.8 | 12.9 | 0.00 | 0.00 | 0.00 | 62 | 1011.9 |
| 20260903211502 | 33 | 170 | 4.8 | 12.9 | 0.00 | 0.00 | 0.00 | 63 | 1011.9 |
| 20260903210502 | 33 | 179 | 4.8 | 17.7 | 0.00 | 0.00 | 0.00 | 64 | 1012.1 |
| 20260903205502 | 32 | 187 | 6.4 | 16.1 | 0.00 | 0.00 | 0.00 | 65 | 1012.2 |
| 20260903204502 | 32 | 179 | 6.4 | 16.1 | 0.00 | 0.00 | 0.00 | 65 | 1012.2 |
| 20260903204002 | 32 | 185 | 6.4 | 16.1 | 0.00 | 0.00 | 0.00 | 66 | 1012.3 |
| 20260903203502 | 32 | 184 | 6.4 | 19.3 | 0.00 | 0.00 | 0.00 | 66 | 1012.5 |
| 20260903203002 | 32 | 181 | 6.4 | 19.3 | 0.00 | 0.00 | 0.00 | 66 | 1012.5 |
| 20260903202002 | 32 | 191 | 6.4 | 17.7 | 0.00 | 0.00 | 0.00 | 67 | 1012.8 |
| 20260903201002 | 32 | 182 | 8.0 | 16.1 | 0.00 | 0.00 | 0.00 | 67 | 1012.7 |
| 20260903200502 | 31 | 184 | 6.4 | 16.1 | 0.00 | 0.00 | 0.00 | 69 | 1012.7 |
| 20260903200002 | 31 | 179 | 6.4 | 19.3 | 0.00 | 0.00 | 0.00 | 69 | 1012.8 |
| 20260903195502 | 31 | 165 | 6.4 | 19.3 | 0.00 | 0.00 | 0.00 | 69 | 1012.8 |
| 20260903195002 | 31 | 168 | 8.0 | 17.7 | 0.00 | 0.00 | 0.00 | 70 | 1012.8 |
| 20260903194002 | 30 | 178 | 8.0 | 17.7 | 0.00 | 0.00 | 0.00 | 71 | 1012.8 |
| 20260903193502 | 31 | 177 | 8.0 | 17.7 | 0.00 | 0.00 | 0.00 | 70 | 1012.9 |
| 20260903193002 | 30 | 174 | 8.0 | 17.7 | 0.00 | 0.00 | 0.00 | 71 | 1013.0 |
| 20260903192502 | 30 | 181 | 8.0 | 17.7 | 0.00 | 0.00 | 0.00 | 71 | 1013.2 |
| 20260903192002 | 30 | 184 | 8.0 | 17.7 | 0.00 | 0.00 | 0.00 | 71 | 1013.2 |
| 20260903191502 | 30 | 177 | 6.4 | 17.7 | 0.00 | 0.00 | 0.00 | 72 | 1013.4 |
| 20260903191002 | 30 | 171 | 6.4 | 17.7 | 0.00 | 0.00 | 0.00 | 72 | 1013.5 |
| 20260903190502 | 30 | 172 | 8.0 | 17.7 | 0.00 | 0.00 | 0.00 | 73 | 1013.6 |
| 20260903190002 | 30 | 186 | 8.0 | 19.3 | 0.00 | 0.00 | 0.00 | 73 | 1013.8 |
| 20260903185003 | 30 | 166 | 8.0 | 17.7 | 0.00 | 0.00 | 0.00 | 72 | 1013.8 |
| 20260903184502 | 30 | 167 | 8.0 | 17.7 | 0.00 | 0.00 | 0.00 | 72 | 1013.7 |
| 20260903184002 | 30 | 166 | 8.0 | 17.7 | 0.00 | 0.00 | 0.00 | 72 | 1013.8 |
| 20260903183501 | 30 | 172 | 8.0 | 19.3 | 0.00 | 0.00 | 0.00 | 73 | 1013.8 |
| 20260903183003 | 30 | 177 | 6.4 | 19.3 | 0.00 | 0.00 | 0.00 | 73 | 1013.8 |
| 20260903182501 | 30 | 179 | 6.4 | 17.7 | 0.00 | 0.00 | 0.00 | 75 | 1014.0 |
| 20260903182003 | 30 | 179 | 6.4 | 17.7 | 0.00 | 0.00 | 0.00 | 74 | 1013.9 |
| 20260903181503 | 29 | 177 | 8.0 | 19.3 | 0.00 | 0.00 | 0.00 | 75 | 1014.0 |
| 20260903181002 | 29 | 182 | 9.7 | 22.5 | 0.00 | 0.00 | 0.00 | 75 | 1014.0 |
| 20260903180503 | 29 | 184 | 8.0 | 22.5 | 0.00 | 0.00 | 0.00 | 76 | 1014.1 |
| 20260903180003 | 28 | 186 | 8.0 | 19.3 | 0.00 | 0.00 | 0.00 | 77 | 1014.2 |
| 20260903175503 | 28 | 186 | 9.7 | 19.3 | 0.00 | 0.00 | 0.00 | 78 | 1014.2 |
| 20260903175002 | 28 | 178 | 8.0 | 22.5 | 0.00 | 0.00 | 0.00 | 78 | 1014.3 |
| 20260903174502 | 28 | 171 | 8.0 | 22.5 | 0.00 | 0.00 | 0.00 | 78 | 1014.3 |
| 20260903174002 | 28 | 175 | 6.4 | 17.7 | 0.00 | 0.00 | 0.00 | 79 | 1014.3 |
| 20260903173502 | 28 | 176 | 6.4 | 17.7 | 0.00 | 0.00 | 0.00 | 79 | 1014.4 |
| 20260903172502 | 28 | 183 | 9.7 | 24.1 | 0.00 | 0.00 | 0.00 | 80 | 1014.6 |
| 20260903172003 | 27 | 182 | 9.7 | 25.7 | 0.00 | 0.00 | 0.00 | 81 | 1014.5 |
| 20260903171002 | 27 | 184 | 9.7 | 24.1 | 0.00 | 0.00 | 0.00 | 82 | 1014.5 |
| 20260903170003 | 27 | 179 | 8.0 | 22.5 | 0.00 | 0.00 | 0.00 | 83 | 1014.6 |
| 20260903165003 | 27 | 169 | 6.4 | 19.3 | 0.00 | 0.00 | 0.00 | 83 | 1014.5 |
| 20260903164503 | 27 | 164 | 6.4 | 20.9 | 0.00 | 0.00 | 0.00 | 83 | 1014.4 |
| 20260903164002 | 27 | 160 | 4.8 | 20.9 | 0.00 | 0.00 | 0.00 | 83 | 1014.4 |
| 20260903163002 | 27 | 170 | 6.4 | 19.3 | 0.00 | 0.00 | 0.00 | 84 | 1014.4 |
| 20260903162502 | 27 | 171 | 6.4 | 19.3 | 0.00 | 0.00 | 0.00 | 83 | 1014.4 |
| 20260903161503 | 27 | 177 | 4.8 | 12.9 | 0.00 | 0.00 | 0.00 | 83 | 1014.4 |
| 20260903161002 | 27 | 174 | 4.8 | 11.3 | 0.00 | 0.00 | 0.00 | 84 | 1014.3 |
| 20260903160502 | 27 | 176 | 4.8 | 12.9 | 0.00 | 0.00 | 0.00 | 84 | 1014.3 |
| 20260903160002 | 27 | 177 | 6.4 | 12.9 | 0.00 | 0.00 | 0.00 | 84 | 1014.2 |
| 20260903155502 | 27 | 174 | 4.8 | 14.5 | 0.00 | 0.00 | 0.00 | 84 | 1014.3 |
| 20260903155002 | 27 | 178 | 3.2 | 14.5 | 0.00 | 0.00 | 0.00 | 85 | 1014.2 |
| 20260903154502 | 27 | 175 | 4.8 | 14.5 | 0.00 | 0.00 | 0.00 | 86 | 1014.2 |
| 20260903154002 | 27 | 177 | 4.8 | 14.5 | 0.00 | 0.00 | 0.00 | 86 | 1014.1 |
| 20260903153002 | 27 | 177 | 6.4 | 16.1 | 0.00 | 0.00 | 0.00 | 87 | 1014.1 |
| 20260903152002 | 27 | 170 | 4.8 | 14.5 | 0.00 | 0.00 | 0.00 | 88 | 1014.2 |
| 20260903151002 | 26 | 169 | 4.8 | 14.5 | 0.00 | 0.00 | 0.00 | 88 | 1014.2 |
| 20260903150503 | 26 | 162 | 4.8 | 11.3 | 0.00 | 0.00 | 0.00 | 89 | 1014.2 |
| 20260903150002 | 26 | 161 | 3.2 | 9.7 | 0.00 | 0.00 | 0.00 | 89 | 1014.2 |
| 20260903145502 | 26 | 148 | 1.6 | 9.7 | 0.00 | 0.00 | 0.00 | 90 | 1014.2 |
| 20260903145003 | 26 | 150 | 3.2 | 9.7 | 0.00 | 0.00 | 0.00 | 90 | 1014.1 |
| 20260903144503 | 26 | 161 | 3.2 | 9.7 | 0.00 | 0.00 | 0.00 | 90 | 1014.2 |
| 20260903143502 | 26 | 169 | 3.2 | 14.5 | 0.00 | 0.00 | 0.00 | 90 | 1014.1 |
| 20260903143002 | 26 | 162 | 1.6 | 14.5 | 0.00 | 0.00 | 0.00 | 90 | 1014.1 |
| 20260903142503 | 26 | 159 | 3.2 | 12.9 | 0.00 | 0.00 | 0.00 | 90 | 1014.3 |
| 20260903141502 | 26 | 161 | 3.2 | 8.0 | 0.00 | 0.00 | 0.00 | 91 | 1014.2 |
| 20260903141002 | 26 | 167 | 3.2 | 11.3 | 0.00 | 0.00 | 0.00 | 92 | 1014.3 |
| 20260903140503 | 26 | 170 | 3.2 | 11.3 | 0.00 | 0.00 | 0.00 | 92 | 1014.3 |
| 20260903140003 | 26 | 172 | 1.6 | 8.0 | 0.00 | 0.00 | 0.00 | 93 | 1014.2 |
| 20260903135503 | 26 | 171 | 1.6 | 8.0 | 0.00 | 0.00 | 0.00 | 93 | 1014.3 |
| 20260903134503 | 26 | 166 | 3.2 | 9.7 | 0.00 | 0.00 | 0.00 | 93 | 1014.3 |
| 20260903133503 | 26 | 148 | 3.2 | 14.5 | 0.00 | 0.00 | 0.00 | 93 | 1014.2 |
| 20260903132502 | 26 | 159 | 3.2 | 12.9 | 0.00 | 0.00 | 0.00 | 93 | 1014.2 |
| 20260903132003 | 25 | 155 | 3.2 | 9.7 | 0.00 | 0.00 | 0.00 | 93 | 1014.2 |
| 20260903131002 | 25 | 132 | 1.6 | 6.4 | 0.00 | 0.00 | 0.00 | 93 | 1014.2 |
| 20260903130503 | 25 | 108 | 1.6 | 4.8 | 0.00 | 0.00 | 0.00 | 93 | 1014.1 |
| 20260903130003 | 25 | 185 | 1.6 | 6.4 | 0.00 | 0.00 | 0.00 | 93 | 1014.0 |
| 20260903125502 | 25 | 159 | 1.6 | 6.4 | 0.00 | 0.00 | 0.00 | 93 | 1013.8 |
| 20260903124502 | 25 | 161 | 3.2 | 9.7 | 0.00 | 0.00 | 0.00 | 93 | 1013.9 |
| 20260903124003 | 25 | 162 | 3.2 | 9.7 | 0.00 | 0.00 | 0.00 | 93 | 1013.8 |
| 20260903123503 | 25 | 160 | 1.6 | 8.0 | 0.00 | 0.00 | 0.00 | 94 | 1013.9 |
| 20260903123003 | 25 | 152 | 1.6 | 6.4 | 0.00 | 0.00 | 0.00 | 94 | 1014.0 |
| 20260903122002 | 25 | 166 | 1.6 | 6.4 | 0.00 | 0.00 | 0.00 | 94 | 1013.8 |
| 20260903121502 | 25 | 172 | 1.6 | 8.0 | 0.00 | 0.00 | 0.00 | 94 | 1013.8 |
| 20260903121003 | 25 | 164 | 1.6 | 9.7 | 0.00 | 0.00 | 0.00 | 94 | 1013.7 |
| 20260903120503 | 25 | 160 | 3.2 | 9.7 | 0.00 | 0.00 | 0.00 | 94 | 1013.7 |
| 20260903120002 | 25 | 160 | 3.2 | 8.0 | 0.00 | 0.00 | 0.00 | 94 | 1013.7 |
| 20260903115503 | 25 | 162 | 1.6 | 11.3 | 0.00 | 0.00 | 0.00 | 94 | 1013.7 |
| 20260903115003 | 25 | 167 | 1.6 | 11.3 | 0.00 | 0.00 | 0.00 | 94 | 1013.6 |
| 20260903114502 | 25 | 167 | 3.2 | 9.7 | 0.00 | 0.00 | 0.00 | 94 | 1013.5 |
| 20260903114003 | 25 | 172 | 1.6 | 6.4 | 0.00 | 0.00 | 0.00 | 94 | 1013.5 |
| 20260903112003 | 25 | 172 | 1.6 | 6.4 | 0.00 | 0.00 | 0.00 | 94 | 1013.5 |
| 20260903111503 | 25 | 169 | 0.0 | 3.2 | 0.00 | 0.00 | 0.00 | 94 | 1013.5 |
| 20260903111002 | 25 | 167 | 0.0 | 4.8 | 0.00 | 0.00 | 0.00 | 94 | 1013.5 |
| 20260903110503 | 25 | 161 | 0.0 | 4.8 | 0.00 | 0.00 | 0.00 | 94 | 1013.5 |
| 20260903110002 | 25 | 150 | 0.0 | 3.2 | 0.00 | 0.00 | 0.00 | 94 | 1013.5 |
| 20260903105003 | 25 | 169 | 0.0 | 1.6 | 0.00 | 0.00 | 0.00 | 94 | 1013.4 |
| 20260903104003 | 25 | 165 | 1.6 | 6.4 | 0.00 | 0.00 | 0.00 | 94 | 1013.4 |
| 20260903103503 | 25 | 166 | 1.6 | 6.4 | 0.00 | 0.00 | 0.00 | 94 | 1013.4 |
| 20260903103002 | 25 | 164 | 1.6 | 6.4 | 0.00 | 0.00 | 0.00 | 94 | 1013.3 |
| 20260903102503 | 24 | 163 | 0.0 | 4.8 | 0.00 | 0.00 | 0.00 | 94 | 1013.3 |
| 20260903102002 | 24 | 169 | 0.0 | 3.2 | 0.00 | 0.00 | 0.00 | 94 | 1013.3 |
| 20260903101003 | 24 | 168 | 0.0 | 4.8 | 0.00 | 0.00 | 0.00 | 94 | 1013.2 |
| 20260903100503 | 24 | 169 | 0.0 | 3.2 | 0.00 | 0.00 | 0.00 | 94 | 1013.2 |
| 20260903095003 | 24 | 173 | 1.6 | 8.0 | 0.00 | 0.00 | 0.00 | 93 | 1013.4 |
| 20260903094003 | 24 | 163 | 1.6 | 6.4 | 0.00 | 0.00 | 0.00 | 93 | 1013.3 |
| 20260903093003 | 25 | 165 | 1.6 | 8.0 | 0.00 | 0.00 | 0.00 | 93 | 1013.3 |
| 20260903092503 | 25 | 165 | 1.6 | 8.0 | 0.00 | 0.00 | 0.00 | 92 | 1013.5 |
| 20260903092003 | 25 | 161 | 1.6 | 6.4 | 0.00 | 0.00 | 0.00 | 92 | 1013.4 |
| 20260903090503 | 25 | 169 | 1.6 | 8.0 | 0.00 | 0.00 | 0.00 | 91 | 1013.3 |
| 20260903090004 | 25 | 184 | 1.6 | 9.7 | 0.00 | 0.00 | 0.00 | 91 | 1013.2 |
| 20260903085503 | 24 | 172 | 1.6 | 9.7 | 0.00 | 0.00 | 0.00 | 91 | 1013.1 |
| 20260903085003 | 24 | 205 | 3.2 | 8.0 | 0.00 | 0.00 | 0.00 | 92 | 1013.1 |
| 20260903084503 | 24 | 275 | 3.2 | 9.7 | 0.00 | 0.00 | 0.00 | 92 | 1012.9 |
| 20260903084003 | 24 | 278 | 3.2 | 12.9 | 0.00 | 0.00 | 0.00 | 92 | 1012.7 |
| 20260903083502 | 24 | 268 | 3.2 | 12.9 | 0.00 | 0.00 | 0.00 | 92 | 1012.7 |
| 20260903082003 | 25 | 167 | 1.6 | 8.0 | 0.00 | 0.00 | 0.00 | 93 | 1013.1 |
| 20260903080003 | 25 | 169 | 0.0 | 4.8 | 0.00 | 0.00 | 0.00 | 92 | 1012.9 |
| 20260903075503 | 25 | 166 | 0.0 | 3.2 | 0.00 | 0.00 | 0.00 | 92 | 1012.9 |
| 20260903074503 | 25 | 184 | 1.6 | 6.4 | 0.00 | 0.00 | 0.00 | 91 | 1012.7 |
| 20260903074003 | 25 | 184 | 1.6 | 6.4 | 0.00 | 0.00 | 0.00 | 91 | 1012.7 |
| 20260903073503 | 25 | 162 | 0.0 | 6.4 | 0.00 | 0.00 | 0.00 | 91 | 1012.7 |
| 20260903073003 | 25 | 117 | 0.0 | 4.8 | 0.00 | 0.00 | 0.00 | 91 | 1012.7 |
| 20260903072503 | 25 | 99 | 0.0 | 4.8 | 0.00 | 0.00 | 0.00 | 90 | 1012.8 |
| 20260903072003 | 25 | 98 | 0.0 | 3.2 | 0.00 | 0.00 | 0.00 | 90 | 1012.7 |
| 20260903071503 | 25 | 99 | 0.0 | 3.2 | 0.00 | 0.00 | 0.00 | 89 | 1012.9 |
| 20260903071003 | 26 | 98 | 0.0 | 3.2 | 0.00 | 0.00 | 0.00 | 89 | 1012.9 |
| 20260903070503 | 26 | 90 | 0.0 | 3.2 | 0.00 | 0.00 | 0.00 | 88 | 1013.0 |
| 20260903070004 | 26 | 96 | 1.6 | 9.7 | 0.00 | 0.00 | 0.00 | 88 | 1013.0 |
| 20260903065503 | 26 | 99 | 1.6 | 9.7 | 0.00 | 0.00 | 0.00 | 87 | 1012.9 |
| 20260903065003 | 26 | 104 | 1.6 | 9.7 | 0.00 | 0.00 | 0.00 | 86 | 1012.9 |
| 20260903064503 | 26 | 101 | 1.6 | 6.4 | 0.00 | 0.00 | 0.00 | 85 | 1012.9 |
| 20260903064003 | 26 | 97 | 0.0 | 4.8 | 0.00 | 0.00 | 0.00 | 85 | 1013.0 |